This is the latest recevied weather packets stored in our database for station/object KF4WSW-13. If no packets are shown the sender has not sent any weather packets the latest 10 day(s).
| Time | Temp. | Humidity | Pressure | Rain* | Wind** | Luminosity | Snow |
|---|---|---|---|---|---|---|---|
| 1777487515 | 28.89° C | 68% | 1014.1 hPa | 0 mm | - | 711 W/m² | - |
| 1777487212 | 28.33° C | 69% | 1014.1 hPa | 0 mm | - | 717 W/m² | - |
| 1777486908 | 28.89° C | 68% | 1014.2 hPa | 0 mm | - | 722 W/m² | - |
| 1777486605 | 28.33° C | 69% | 1014.1 hPa | 0 mm | - | 730 W/m² | - |
| 1777486303 | 28.89° C | 69% | 1014.1 hPa | 0 mm | - | 735 W/m² | - |
| 1777486000 | 28.89° C | 66% | 1014.1 hPa | 0 mm | - | 743 W/m² | - |
| 1777485696 | 28.89° C | 68% | 1014.3 hPa | 0 mm | - | 748 W/m² | - |
| 1777485392 | 28.33° C | 69% | 1014.3 hPa | 0 mm | - | 752 W/m² | - |
| 1777485088 | 27.78° C | 69% | 1014.6 hPa | 0 mm | - | 757 W/m² | - |
| 1777484786 | 28.33° C | 68% | 1014.3 hPa | 0 mm | - | 761 W/m² | - |
| 1777484481 | 28.89° C | 67% | 1014.6 hPa | 0 mm | - | 765 W/m² | - |
| 1777484179 | 29.44° C | 66% | 1014.6 hPa | 0 mm | - | 768 W/m² | - |
| 1777483874 | 28.89° C | 66% | 1014.6 hPa | 0 mm | - | 770 W/m² | - |
| 1777483572 | 28.89° C | 66% | 1014.7 hPa | 0 mm | - | 773 W/m² | - |
| 1777483271 | 28.89° C | 65% | 1014.8 hPa | 0 mm | - | 770 W/m² | - |
| 1777482968 | 28.33° C | 66% | 1014.6 hPa | 0 mm | - | 777 W/m² | - |
| 1777482664 | 28.33° C | 65% | 1014.6 hPa | 0 mm | - | 773 W/m² | - |
| 1777482361 | 28.89° C | 64% | 1014.7 hPa | 0 mm | - | 774 W/m² | - |
| 1777482059 | 28.89° C | 65% | 1014.7 hPa | 0 mm | - | 778 W/m² | - |
| 1777481756 | 28.89° C | 64% | 1015 hPa | 0 mm | - | 775 W/m² | - |
| 1777481453 | 29.44° C | 64% | 1014.9 hPa | 0 mm | - | 775 W/m² | - |
| 1777481149 | 30° C | 60% | 1015 hPa | 0 mm | - | 772 W/m² | - |
| 1777480846 | 30° C | 62% | 1015.1 hPa | 0 mm | - | 771 W/m² | - |
| 1777480543 | 30° C | 60% | 1015.1 hPa | 0 mm | - | 768 W/m² | - |
| 1777480240 | 30° C | 61% | 1015.1 hPa | 0 mm | - | 756 W/m² | - |
* Rain latest hour (hover to see other rain measurements)
** Current wind speed in m/s (hover to see current wind gust speed)